When you browse on this site, cookies collect data to enhance your experience and personalize the content and advertising you see.
Visit our Privacy Policy to learn more. By continuing to use the site, you agree to this use of cookies and data.
  • In Hungary
  • List of Countries
  • For 7 days
  • Water Temperature
  • Satellite Maps
  • Weather Map
  • News
  • Weather Widgets
  • user-avatar
    Login

    Hourly Weather Perchtoldsdorf

    Today, 22 March, Friday

    Time Temperature Precipitation Wind Pressure Humidity
    00:00 +7°C° 0 mm 1 mps 750 mmHg 52%
    01:00 +7°C° 0 mm 1 mps 750 mmHg 51%
    02:00 +5°C° 0 mm 0 mps 750 mmHg 51%
    03:00 +5°C° 0 mm 0 mps 750 mmHg 51%
    04:00 +5°C° 0 mm 0 mps 749 mmHg 52%
    05:00 +5°C° 0 mm 0 mps 749 mmHg 52%
    06:00 +5°C° 0 mm 0 mps 750 mmHg 52%
    07:00 +7°C° 0 mm 1 mps 750 mmHg 47%
    08:00 +8°C° 0 mm 0 mps 750 mmHg 44%
    09:00 +10°C° 0 mm 0 mps 750 mmHg 41%
    10:00 +12°C° 0 mm 0 mps 749 mmHg 38%
    11:00 +14°C° 0 mm 1 mps 749 mmHg 39%
    12:00 +15°C° 0 mm 1 mps 749 mmHg 39%
    13:00 +18°C° 0 mm 1 mps 749 mmHg 39%
    14:00 +18°C° 0 mm 1 mps 748 mmHg 41%
    15:00 +18°C° 0 mm 1 mps 748 mmHg 43%
    16:00 +18°C° 0 mm 1 mps 747 mmHg 45%
    17:00 +15°C° 0 mm 1 mps 747 mmHg 51%
    18:00 +14°C° 0 mm 1 mps 747 mmHg 56%
    19:00 +11°C° 0 mm 0 mps 747 mmHg 62%
    20:00 +11°C° 0 mm 0 mps 747 mmHg 64%
    21:00 +10°C° 0 mm 0 mps 747 mmHg 66%
    22:00 +10°C° 0 mm 0 mps 748 mmHg 69%
    23:00 +9°C° 0 mm 0 mps 747 mmHg 72%

    Tomorrow, 23 March, Saturday

    Time Temperature Precipitation Wind Pressure Humidity
    00:00 +9°C° 0 mm 0 mps 747 mmHg 74%
    01:00 +8°C° 0 mm 0 mps 747 mmHg 77%
    02:00 +8°C° 0 mm 0 mps 747 mmHg 79%
    03:00 +8°C° 0 mm 0 mps 747 mmHg 81%
    04:00 +7°C° 0 mm 0 mps 747 mmHg 83%
    05:00 +7°C° 0 mm 0 mps 747 mmHg 83%
    06:00 +8°C° 0 mm 0 mps 747 mmHg 82%
    07:00 +8°C° 0 mm 0 mps 747 mmHg 82%
    08:00 +10°C° 0 mm 0 mps 747 mmHg 74%
    09:00 +12°C° 0 mm 0 mps 746 mmHg 66%
    10:00 +14°C° 0 mm 0 mps 746 mmHg 58%
    11:00 +15°C° 0 mm 0 mps 746 mmHg 53%
    12:00 +17°C° 0 mm 0 mps 746 mmHg 48%
    13:00 +18°C° 0 mm 0 mps 746 mmHg 43%
    14:00 +20°C° 0 mm 1 mps 745 mmHg 43%
    15:00 +20°C° 0 mm 1 mps 745 mmHg 42%
    16:00 +20°C° 0 mm 1 mps 745 mmHg 42%
    17:00 +18°C° 0 mm 1 mps 745 mmHg 47%
    18:00 +16°C° 0 mm 1 mps 745 mmHg 53%
    19:00 +13°C° 0 mm 0 mps 745 mmHg 58%
    20:00 +13°C° 0 mm 1 mps 745 mmHg 60%
    21:00 +13°C° 0 mm 1 mps 745 mmHg 63%
    22:00 +12°C° 0 mm 1 mps 745 mmHg 65%
    23:00 +12°C° 0 mm 1 mps 745 mmHg 67%

    Day after tomorrow, 24 March, Sunday

    Time Temperature Precipitation Wind Pressure Humidity
    00:00 +11°C° 0 mm 1 mps 745 mmHg 69%
    01:00 +11°C° 0 mm 1 mps 745 mmHg 71%
    02:00 +11°C° 0 mm 1 mps 744 mmHg 72%
    03:00 +10°C° 0 mm 1 mps 744 mmHg 73%
    04:00 +10°C° 0 mm 1 mps 744 mmHg 74%
    05:00 +10°C° 0 mm 1 mps 744 mmHg 74%
    06:00 +10°C° 0 mm 1 mps 744 mmHg 74%
    07:00 +10°C° 0 mm 1 mps 744 mmHg 74%
    08:00 +12°C° 0 mm 1 mps 744 mmHg 69%
    09:00 +14°C° 0 mm 2 mps 744 mmHg 64%
    10:00 +15°C° 0 mm 2 mps 744 mmHg 59%
    11:00 +16°C° 0 mm 2 mps 743 mmHg 56%
    12:00 +17°C° 0 mm 2 mps 743 mmHg 53%
    13:00 +19°C° 0 mm 1 mps 742 mmHg 50%
    14:00 +18°C° 0 mm 2 mps 742 mmHg 51%
    15:00 +18°C° 0 mm 2 mps 741 mmHg 52%
    16:00 +18°C° 0 mm 2 mps 741 mmHg 53%
    17:00 +17°C° 0 mm 2 mps 741 mmHg 60%
    18:00 +15°C° 0 mm 2 mps 741 mmHg 66%
    19:00 +14°C° 0 mm 2 mps 741 mmHg 73%
    20:00 +13°C° 0.3 mm 2 mps 741 mmHg 76%
    21:00 +12°C° 0.3 mm 2 mps 742 mmHg 80%
    22:00 +12°C° 0.3 mm 2 mps 742 mmHg 83%
    23:00 +10°C° 0.3 mm 3 mps 742 mmHg 83%

    25 March, Monday

    Time Temperature Precipitation Wind Pressure Humidity
    00:00 +10°C° 0.3 mm 3 mps 742 mmHg 83%
    01:00 +10°C° 0.3 mm 3 mps 742 mmHg 83%
    02:00 +9°C° 0 mm 3 mps 742 mmHg 81%
    03:00 +9°C° 0 mm 3 mps 741 mmHg 80%
    04:00 +7°C° 0 mm 4 mps 741 mmHg 78%
    05:00 +8°C° 0.1 mm 3 mps 741 mmHg 77%
    06:00 +7°C° 0.1 mm 3 mps 741 mmHg 77%
    07:00 +7°C° 0.1 mm 3 mps 741 mmHg 76%
    08:00 +8°C° 0.1 mm 3 mps 741 mmHg 72%
    09:00 +8°C° 0.1 mm 3 mps 741 mmHg 68%
    10:00 +9°C° 0.1 mm 3 mps 741 mmHg 64%
    11:00 +8°C° 0 mm 4 mps 740 mmHg 61%
    12:00 +9°C° 0 mm 5 mps 740 mmHg 58%
    13:00 +10°C° 0 mm 5 mps 739 mmHg 56%
    14:00 +10°C° 0.1 mm 6 mps 739 mmHg 53%
    15:00 +10°C° 0.1 mm 6 mps 739 mmHg 50%
    16:00 +10°C° 0.1 mm 6 mps 739 mmHg 47%
    17:00 +9°C° 0.4 mm 7 mps 739 mmHg 52%
    18:00 +6°C° 0.4 mm 7 mps 740 mmHg 57%
    19:00 +5°C° 0.4 mm 7 mps 740 mmHg 62%
    20:00 +4°C° 0.1 mm 7 mps 741 mmHg 61%
    21:00 +3°C° 0.1 mm 6 mps 742 mmHg 60%
    22:00 +3°C° 0.1 mm 6 mps 742 mmHg 59%
    23:00 +2°C° 0 mm 6 mps 742 mmHg 62%

    26 March, Tuesday

    Time Temperature Precipitation Wind Pressure Humidity
    00:00 +2°C° 0 mm 6 mps 742 mmHg 64%
    01:00 +2°C° 0 mm 7 mps 742 mmHg 66%
    02:00 +2°C° 0 mm 6 mps 743 mmHg 67%
    03:00 +2°C° 0 mm 6 mps 743 mmHg 69%
    04:00 +1°C° 0 mm 6 mps 743 mmHg 70%
    05:00 0°C° 0 mm 7 mps 744 mmHg 68%
    06:00 +2°C° 0 mm 7 mps 745 mmHg 66%
    07:00 +2°C° 0 mm 7 mps 745 mmHg 64%
    08:00 +2°C° 0 mm 7 mps 746 mmHg 60%
    09:00 +3°C° 0 mm 7 mps 747 mmHg 57%
    10:00 +4°C° 0 mm 7 mps 747 mmHg 54%
    11:00 +5°C° 0.1 mm 7 mps 747 mmHg 52%
    12:00 +5°C° 0.1 mm 7 mps 747 mmHg 50%
    13:00 +5°C° 0.1 mm 7 mps 747 mmHg 48%
    14:00 +6°C° 0 mm 7 mps 747 mmHg 47%
    15:00 +6°C° 0 mm 7 mps 747 mmHg 46%
    16:00 +7°C° 0 mm 6 mps 746 mmHg 45%
    17:00 +5°C° 0 mm 6 mps 747 mmHg 49%
    18:00 +5°C° 0 mm 5 mps 747 mmHg 53%
    19:00 +4°C° 0 mm 4 mps 748 mmHg 56%
    20:00 +4°C° 0 mm 4 mps 748 mmHg 58%
    21:00 +4°C° 0 mm 3 mps 748 mmHg 60%
    22:00 +3°C° 0 mm 3 mps 748 mmHg 62%
    23:00 +3°C° 0 mm 3 mps 748 mmHg 62%

    27 March, Wednesday

    Time Temperature Precipitation Wind Pressure Humidity
    00:00 +3°C° 0 mm 3 mps 748 mmHg 63%
    01:00 +3°C° 0 mm 3 mps 748 mmHg 63%
    02:00 +3°C° 0 mm 3 mps 748 mmHg 63%
    03:00 +3°C° 0 mm 4 mps 748 mmHg 63%
    04:00 +1°C° 0 mm 4 mps 748 mmHg 63%
    05:00 +3°C° 0 mm 4 mps 748 mmHg 64%
    06:00 +3°C° 0 mm 4 mps 748 mmHg 64%
    07:00 +2°C° 0 mm 5 mps 748 mmHg 65%
    08:00 +3°C° 0 mm 5 mps 748 mmHg 63%
    09:00 +5°C° 0 mm 5 mps 748 mmHg 61%
    10:00 +6°C° 0 mm 5 mps 748 mmHg 60%
    11:00 +7°C° 0.1 mm 5 mps 748 mmHg 59%
    12:00 +7°C° 0.1 mm 5 mps 748 mmHg 59%
    13:00 +8°C° 0.1 mm 5 mps 747 mmHg 58%
    14:00 +8°C° 0 mm 5 mps 747 mmHg 59%
    15:00 +8°C° 0 mm 4 mps 747 mmHg 59%
    16:00 +8°C° 0 mm 4 mps 747 mmHg 60%
    17:00 +7°C° 0.1 mm 4 mps 748 mmHg 63%
    18:00 +8°C° 0.1 mm 3 mps 748 mmHg 66%
    19:00 +7°C° 0.1 mm 3 mps 749 mmHg 69%
    20:00 +7°C° 0 mm 3 mps 749 mmHg 72%
    21:00 +5°C° 0 mm 3 mps 749 mmHg 75%
    22:00 +5°C° 0 mm 3 mps 750 mmHg 78%
    23:00 +4°C° 0 mm 3 mps 750 mmHg 79%
    Show more